Weather History for Whidbey Island, WA

Change the Weather History Date:

Saturday, August 17, 2013

  Actual Average Record
Temperature  
Mean Temperature 64 °F -  
Max Temperature 73 °F 65 °F 75 °F (2007)
Min Temperature 55 °F 50 °F 45 °F (2002)
Degree Days  
Heating Degree Days 1    
Growing Degree Days 14 (Base 50)    
Moisture  
Dew Point 55 °F    
Average Humidity 79    
Maximum Humidity 93    
Minimum Humidity 57    
Precipitation  
Precipitation 0.00 in - - ()
Sea Level Pressure  
Sea Level Pressure 30.07 in    
Wind  
Wind Speed 5 mph (SSW)    
Max Wind Speed 12 mph    
Max Gust Speed -    
Visibility 10 miles    
Events      
Averages and records for this station are not official NWS values.
T = Trace of Precipitation, MM = Missing Value Source: NWS Daily Summary

Daily Weather History Graph

Daily Weather History Graph

Search for Another Location

Airport:

Trip Planner

Search our weather history database for the weather conditions in past years. The results will help you decide how hot, cold, wet, or windy it might be!

Date:

Astronomy

Aug. 17, 2013 Rise Set
Actual Time 6:07 AM PDT 8:20 PM PDT
Civil Twilight 5:33 AM PDT 8:54 PM PDT
Nautical Twilight 4:50 AM PDT 9:36 PM PDT
Astronomical Twilight 4:02 AM PDT 10:24 PM PDT
Moon 5:48 PM PDT (8/17) 2:07 AM PDT (8/17)
Length of Visible Light 15h 20m
Length of Day
14h 12m
Waxing Gibbous, 85% of the Moon is Illuminated
Aug 17
Waxing Gibbous
Aug 20
Full
Aug 28
Last Quarter
Sep 5
New
Sep 12
First Quarter

Hourly Weather History & Observations

Time (PDT) Temp. Dew Point Humidity Pressure Visibility Wind Dir Wind Speed Gust Speed Precip Events Conditions
12:23 AM 60.8 °F 53.6 °F 77% 30.00 in 10.0 mi Variable 3.5 mph - 0.00 in   Mostly Cloudy
12:56 AM 60.1 °F 54.0 °F 80% 30.02 in 10.0 mi South 3.5 mph - 0.00 in   Mostly Cloudy
1:56 AM 60.1 °F 55.0 °F 83% 30.02 in 10.0 mi Calm Calm - N/A   Mostly Cloudy
2:56 AM 60.1 °F 55.0 °F 83% 30.03 in 10.0 mi SE 5.8 mph - N/A   Mostly Cloudy
3:56 AM 60.1 °F 55.0 °F 83% 30.03 in 10.0 mi ESE 4.6 mph - N/A   Scattered Clouds
4:56 AM 60.1 °F 55.9 °F 86% 30.03 in 10.0 mi ESE 4.6 mph - N/A   Mostly Cloudy
5:56 AM 57.0 °F 55.0 °F 93% 30.03 in 10.0 mi ESE 5.8 mph - N/A   Mostly Cloudy
6:56 AM 59.0 °F 55.9 °F 90% 30.04 in 10.0 mi ESE 5.8 mph - N/A   Mostly Cloudy
7:56 AM 62.1 °F 57.0 °F 84% 30.06 in 10.0 mi SSE 6.9 mph - N/A   Mostly Cloudy
8:56 AM 63.0 °F 57.0 °F 81% 30.06 in 10.0 mi SSE 11.5 mph - N/A   Overcast
9:56 AM 66.9 °F 57.0 °F 70% 30.08 in 10.0 mi SSE 10.4 mph - N/A   Mostly Cloudy
10:56 AM 70.0 °F 57.0 °F 63% 30.09 in 10.0 mi SSE 8.1 mph - N/A   Mostly Cloudy
11:56 AM 73.0 °F 57.0 °F 57% 30.09 in 10.0 mi Variable 6.9 mph - N/A   Mostly Cloudy
12:56 PM 68.0 °F 57.0 °F 68% 30.10 in 10.0 mi WSW 8.1 mph - N/A   Overcast
1:56 PM 63.0 °F 55.0 °F 75% 30.10 in 10.0 mi West 5.8 mph - N/A   Mostly Cloudy
2:56 PM 64.9 °F 57.0 °F 75% 30.09 in 10.0 mi WSW 10.4 mph - N/A   Mostly Cloudy
3:56 PM 63.0 °F 55.0 °F 75% 30.09 in 10.0 mi West 6.9 mph - N/A   Scattered Clouds
4:56 PM 62.1 °F 54.0 °F 75% 30.09 in 10.0 mi West 5.8 mph - N/A   Scattered Clouds
5:56 PM 62.1 °F 54.0 °F 75% 30.08 in 10.0 mi West 4.6 mph - N/A   Scattered Clouds
6:56 PM 61.0 °F 53.1 °F 75% 30.07 in 10.0 mi West 4.6 mph - N/A   Scattered Clouds
7:56 PM 57.9 °F 52.0 °F 81% 30.07 in 10.0 mi Calm Calm - N/A   Scattered Clouds
8:56 PM 55.9 °F 52.0 °F 87% 30.09 in 10.0 mi Calm Calm - N/A   Scattered Clouds
9:56 PM 55.9 °F 53.1 °F 90% 30.09 in 10.0 mi WSW 5.8 mph - N/A   Scattered Clouds
10:56 PM 55.9 °F 52.0 °F 87% 30.10 in 10.0 mi West 4.6 mph - N/A   Scattered Clouds
11:56 PM 57.0 °F 53.1 °F 87% 30.10 in 10.0 mi Calm Calm - N/A   Mostly Cloudy